This is the latest recevied weather packets stored in our database for station/object K7CTM. If no packets are shown the sender has not sent any weather packets the latest 1 day(s).
| Time | Temp. | Humidity | Pressure | Rain* | Wind** | Luminosity | Snow |
|---|---|---|---|---|---|---|---|
| 1778023321 | 8.33° C | 34% | 1025.7 hPa | 0 mm | 0.89 m/s, 251° | 121 W/m² | - |
| 1778023018 | 9.44° C | 32% | 1026 hPa | 0 mm | 1.34 m/s, 4° | 165 W/m² | - |
| 1778022717 | 10° C | 32% | 1026.1 hPa | 0 mm | 0.45 m/s, 259° | 553 W/m² | - |
| 1778022415 | 8.89° C | 33% | 1025.8 hPa | 0 mm | 1.34 m/s, 287° | 352 W/m² | - |
| 1778022111 | 8.33° C | 33% | 1026.1 hPa | 0 mm | 1.79 m/s, 280° | 149 W/m² | - |
| 1778021807 | 8.89° C | 32% | 1026.2 hPa | 0 mm | 2.68 m/s, 330° | 117 W/m² | - |
| 1778021503 | 10° C | 32% | 1026.1 hPa | 0 mm | 1.34 m/s, 10° | 182 W/m² | - |
| 1778021199 | 8.89° C | 34% | 1026 hPa | 0 mm | 1.34 m/s, 267° | 226 W/m² | - |
| 1778020897 | 9.44° C | 38% | 1026 hPa | 0 mm | 0.89 m/s, 31° | 172 W/m² | - |
| 1778020594 | 8.89° C | 45% | 1025.8 hPa | 0 mm | 2.68 m/s, 262° | 587 W/m² | - |
| 1778020290 | 7.78° C | 48% | 1026.2 hPa | 0 mm | 1.79 m/s, 225° | 213 W/m² | - |
| 1778019986 | 7.22° C | 49% | 1026 hPa | 0 mm | 2.68 m/s, 284° | 211 W/m² | - |
| 1778019683 | 6.67° C | 48% | 1026.4 hPa | 0 mm | 3.13 m/s, 286° | 212 W/m² | - |
| 1778019380 | 6.67° C | 49% | 1026.2 hPa | 0 mm | 3.13 m/s, 289° | 192 W/m² | - |
| 1778019076 | 6.67° C | 51% | 1026.2 hPa | 0 mm | 0.89 m/s, 257° | 186 W/m² | - |
| 1778018774 | 6.67° C | 50% | 1026.4 hPa | 0 mm | 4.02 m/s, 269° | 179 W/m² | - |
| 1778018471 | 7.22° C | 46% | 1026.3 hPa | 0 mm | 2.24 m/s, 295° | 213 W/m² | - |
| 1778018169 | 8.33° C | 42% | 1026.3 hPa | 0 mm | 4.02 m/s, 263° | 164 W/m² | - |
| 1778017867 | 8.33° C | 33% | 1026 hPa | 0 mm | 3.13 m/s, 293° | 180 W/m² | - |
| 1778017565 | 7.78° C | 34% | 1026 hPa | 0 mm | 0.45 m/s, 250° | 145 W/m² | - |
| 1778017262 | 7.78° C | 33% | 1026.1 hPa | 0 mm | 2.24 m/s, 351° | 130 W/m² | - |
| 1778016959 | 7.78° C | 35% | 1026.1 hPa | 0 mm | 1.34 m/s, 288° | 143 W/m² | - |
| 1778016655 | 7.78° C | 33% | 1026.1 hPa | 0 mm | 2.24 m/s, 301° | 157 W/m² | - |
| 1778016352 | 8.33° C | 35% | 1026 hPa | 0 mm | 1.34 m/s, 290° | 144 W/m² | - |
| 1778016050 | 8.33° C | 35% | 1026.2 hPa | 0 mm | 1.34 m/s, 265° | 173 W/m² | - |
* Rain latest hour (hover to see other rain measurements)
** Current wind speed in m/s (hover to see current wind gust speed)